Time,TemperatureF,DewpointF,PressureIn,WindDirection,WindDirectionDegrees,WindSpeedMPH,WindSpeedGustMPH,Humidity,HourlyPrecipIn,Conditions,Clouds,dailyrainin,SoftwareType,DateUTC
2013-04-23 00:03:00,54.0,25.0,-100.00,NE,45,7.0,12.0,31,0.00,,,-99.99,,2013-04-23 04:03:00,
2013-04-23 00:13:00,54.0,25.0,-100.00,East,98,6.0,12.0,32,0.00,,,-99.99,,2013-04-23 04:13:00,
2013-04-23 00:23:00,53.0,25.0,-100.00,NE,43,6.0,12.0,31,0.00,,,-99.99,,2013-04-23 04:23:00,
2013-04-23 00:33:00,53.0,25.0,-100.00,East,96,6.0,12.0,31,0.00,,,-99.99,,2013-04-23 04:33:00,
2013-04-23 00:43:00,53.0,25.0,-100.00,ENE,77,7.0,12.0,32,0.00,,,-99.99,,2013-04-23 04:43:00,
2013-04-23 00:53:00,53.0,25.0,-100.00,ENE,66,6.0,12.0,32,0.00,,,-99.99,,2013-04-23 04:53:00,
2013-04-23 01:02:00,52.0,25.0,-100.00,East,87,5.0,12.0,33,0.00,,,-99.99,,2013-04-23 05:02:00,
2013-04-23 01:12:00,52.0,25.0,-100.00,East,87,6.0,12.0,33,0.00,,,-99.99,,2013-04-23 05:12:00,
2013-04-23 01:22:00,52.0,25.0,-100.00,ENE,76,6.0,12.0,33,0.00,,,-99.99,,2013-04-23 05:22:00,
2013-04-23 01:32:00,51.0,25.0,-100.00,East,97,7.0,12.0,34,0.00,,,-99.99,,2013-04-23 05:32:00,
2013-04-23 01:42:00,51.0,27.0,-100.00,East,88,7.0,12.0,36,0.00,,,-99.99,,2013-04-23 05:42:00,
2013-04-23 01:52:00,51.0,25.0,-100.00,ESE,107,6.0,12.0,36,0.00,,,-99.99,,2013-04-23 05:52:00,
2013-04-23 02:02:00,51.0,27.0,-100.00,ENE,76,6.0,12.0,36,0.00,,,-99.99,,2013-04-23 06:02:00,
2013-04-23 02:12:00,50.0,28.0,-100.00,East,100,7.0,12.0,40,0.00,,,-99.99,,2013-04-23 06:12:00,
2013-04-23 02:22:00,51.0,28.0,-100.00,East,100,6.0,12.0,40,0.00,,,-99.99,,2013-04-23 06:22:00,
2013-04-23 02:33:00,50.0,28.0,-100.00,ESE,107,7.0,12.0,41,0.00,,,-99.99,,2013-04-23 06:33:00,
2013-04-23 02:42:00,49.0,28.0,-100.00,East,91,7.0,12.0,42,0.00,,,-99.99,,2013-04-23 06:42:00,
2013-04-23 02:52:00,49.0,28.0,-100.00,ENE,72,6.0,12.0,44,0.00,,,-99.99,,2013-04-23 06:52:00,
2013-04-23 03:02:00,49.0,30.0,-100.00,ENE,69,6.0,12.0,45,0.00,,,-99.99,,2013-04-23 07:02:00,
2013-04-23 03:11:00,49.0,28.0,-100.00,ESE,103,6.0,12.0,45,0.00,,,-99.99,,2013-04-23 07:11:00,
2013-04-23 03:22:00,49.0,30.0,-100.00,ESE,111,7.0,12.0,46,0.00,,,-99.99,,2013-04-23 07:22:00,
2013-04-23 03:32:00,48.0,30.0,-100.00,East,83,7.0,12.0,46,0.00,,,-99.99,,2013-04-23 07:32:00,
2013-04-23 03:42:00,48.0,30.0,-100.00,East,94,8.0,12.0,46,0.00,,,-99.99,,2013-04-23 07:42:00,
2013-04-23 03:52:00,48.0,30.0,-100.00,East,93,7.0,12.0,47,0.00,,,-99.99,,2013-04-23 07:52:00,
2013-04-23 04:02:00,48.0,30.0,-100.00,East,87,6.0,12.0,47,0.00,,,-99.99,,2013-04-23 08:02:00,
2013-04-23 04:11:00,48.0,30.0,-100.00,East,98,7.0,12.0,49,0.00,,,-99.99,,2013-04-23 08:11:00,
2013-04-23 04:22:00,48.0,30.0,-100.00,East,81,8.0,12.0,50,0.00,,,-99.99,,2013-04-23 08:22:00,
2013-04-23 04:32:00,47.0,30.0,-100.00,East,91,9.0,12.0,50,0.00,,,-99.99,,2013-04-23 08:32:00,
2013-04-23 04:42:00,47.0,30.0,-100.00,East,86,8.0,12.0,51,0.00,,,-99.99,,2013-04-23 08:42:00,
2013-04-23 04:52:00,47.0,30.0,-100.00,East,96,7.0,12.0,51,0.00,,,-99.99,,2013-04-23 08:52:00,
2013-04-23 05:02:00,46.0,30.0,-100.00,ENE,74,8.0,12.0,53,0.00,,,-99.99,,2013-04-23 09:02:00,
2013-04-23 05:11:00,47.0,32.0,-100.00,East,87,10.0,14.0,53,0.00,,,-99.99,,2013-04-23 09:11:00,
2013-04-23 05:22:00,46.0,32.0,-100.00,ESE,114,9.0,14.0,54,0.00,,,-99.99,,2013-04-23 09:22:00,
2013-04-23 05:33:00,47.0,32.0,-100.00,ESE,103,9.0,14.0,54,0.00,,,-99.99,,2013-04-23 09:33:00,
2013-04-23 05:43:00,46.0,32.0,-100.00,East,94,8.0,14.0,55,0.00,,,-99.99,,2013-04-23 09:43:00,
2013-04-23 05:52:00,45.0,30.0,-100.00,East,101,8.0,14.0,55,0.00,,,-99.99,,2013-04-23 09:52:00,
2013-04-23 06:03:00,46.0,32.0,-100.00,NE,48,7.0,14.0,55,0.00,,,-99.99,,2013-04-23 10:03:00,
2013-04-23 06:13:00,47.0,32.0,-100.00,East,88,8.0,14.0,56,0.00,,,-99.99,,2013-04-23 10:13:00,
2013-04-23 06:23:00,46.0,32.0,-100.00,East,91,7.0,14.0,58,0.00,,,-99.99,,2013-04-23 10:23:00,
2013-04-23 06:33:00,45.0,32.0,-100.00,ENE,73,8.0,14.0,58,0.00,,,-99.99,,2013-04-23 10:33:00,
2013-04-23 06:42:00,44.0,32.0,-100.00,ESE,110,7.0,14.0,59,0.00,,,-99.99,,2013-04-23 10:42:00,
2013-04-23 06:52:00,45.0,32.0,-100.00,ESE,105,8.0,14.0,59,0.00,,,-99.99,,2013-04-23 10:52:00,
2013-04-23 07:03:00,44.0,32.0,-100.00,East,97,9.0,14.0,59,0.00,,,-99.99,,2013-04-23 11:03:00,
2013-04-23 07:12:00,44.0,32.0,-100.00,ESE,104,9.0,14.0,60,0.00,,,-99.99,,2013-04-23 11:12:00,
2013-04-23 07:22:00,44.0,32.0,-100.00,East,93,9.0,14.0,60,0.00,,,-99.99,,2013-04-23 11:22:00,
2013-04-23 07:32:00,45.0,32.0,-100.00,East,94,7.0,14.0,60,0.00,,,-99.99,,2013-04-23 11:32:00,
2013-04-23 07:43:00,44.0,32.0,-100.00,East,84,9.0,14.0,60,0.00,,,-99.99,,2013-04-23 11:43:00,
2013-04-23 07:52:00,43.0,30.0,-100.00,East,93,8.0,14.0,60,0.00,,,-99.99,,2013-04-23 11:52:00,
2013-04-23 08:02:00,45.0,32.0,-100.00,East,94,11.0,14.0,60,0.00,,,-99.99,,2013-04-23 12:02:00,
2013-04-23 08:12:00,47.0,34.0,-100.00,ENE,66,9.0,14.0,60,0.00,,,-99.99,,2013-04-23 12:12:00,
2013-04-23 08:22:00,45.0,32.0,-100.00,ESE,110,9.0,14.0,59,0.00,,,-99.99,,2013-04-23 12:22:00,
2013-04-23 08:32:00,46.0,32.0,-100.00,East,96,9.0,14.0,58,0.00,,,-99.99,,2013-04-23 12:32:00,
2013-04-23 08:42:00,48.0,34.0,-100.00,East,93,9.0,14.0,58,0.00,,,-99.99,,2013-04-23 12:42:00,
2013-04-23 08:52:00,49.0,34.0,-100.00,ENE,76,10.0,14.0,58,0.00,,,-99.99,,2013-04-23 12:52:00,
2013-04-23 09:01:00,47.0,32.0,-100.00,East,80,11.0,14.0,56,0.00,,,-99.99,,2013-04-23 13:01:00,
2013-04-23 09:12:00,48.0,32.0,-100.00,East,87,11.0,14.0,54,0.00,,,-99.99,,2013-04-23 13:12:00,
2013-04-23 09:22:00,49.0,32.0,-100.00,ESE,114,8.0,14.0,54,0.00,,,-99.99,,2013-04-23 13:22:00,
2013-04-23 09:32:00,51.0,34.0,-100.00,East,100,10.0,14.0,54,0.00,,,-99.99,,2013-04-23 13:32:00,
2013-04-23 09:42:00,51.0,34.0,-100.00,ENE,73,10.0,14.0,53,0.00,,,-99.99,,2013-04-23 13:42:00,
2013-04-23 09:52:00,52.0,34.0,-100.00,East,96,9.0,14.0,51,0.00,,,-99.99,,2013-04-23 13:52:00,
2013-04-23 10:02:00,51.0,32.0,-100.00,East,94,11.0,14.0,49,0.00,,,-99.99,,2013-04-23 14:02:00,
2013-04-23 10:11:00,53.0,34.0,-100.00,East,101,11.0,14.0,49,0.00,,,-99.99,,2013-04-23 14:11:00,
2013-04-23 10:22:00,54.0,34.0,-100.00,ESE,118,10.0,14.0,47,0.00,,,-99.99,,2013-04-23 14:22:00,
2013-04-23 10:32:00,54.0,34.0,-100.00,SE,128,9.0,14.0,47,0.00,,,-99.99,,2013-04-23 14:32:00,
2013-04-23 10:42:00,53.0,32.0,-100.00,East,98,9.0,14.0,46,0.00,,,-99.99,,2013-04-23 14:42:00,
2013-04-23 10:52:00,56.0,34.0,-100.00,ESE,104,7.0,14.0,45,0.00,,,-99.99,,2013-04-23 14:52:00,
2013-04-23 11:01:00,55.0,32.0,-100.00,East,87,7.0,14.0,44,0.00,,,-99.99,,2013-04-23 15:01:00,
2013-04-23 11:12:00,55.0,32.0,-100.00,East,86,8.0,14.0,42,0.00,,,-99.99,,2013-04-23 15:12:00,
2013-04-23 11:22:00,57.0,32.0,-100.00,ESE,118,9.0,14.0,37,0.00,,,-99.99,,2013-04-23 15:22:00,
2013-04-23 11:32:00,60.0,34.0,-100.00,ESE,120,8.0,14.0,38,0.00,,,-99.99,,2013-04-23 15:32:00,
2013-04-23 11:43:00,59.0,32.0,-100.00,East,97,6.0,14.0,38,0.00,,,-99.99,,2013-04-23 15:43:00,
2013-04-23 11:53:00,59.0,32.0,-100.00,East,100,9.0,14.0,36,0.00,,,-99.99,,2013-04-23 15:53:00,
2013-04-23 12:03:00,60.0,32.0,-100.00,SE,138,8.0,14.0,36,0.00,,,-99.99,,2013-04-23 16:03:00,
2013-04-23 12:12:00,60.0,32.0,-100.00,ESE,108,7.0,14.0,34,0.00,,,-99.99,,2013-04-23 16:12:00,
2013-04-23 12:23:00,61.0,32.0,-100.00,East,101,6.0,14.0,34,0.00,,,-99.99,,2013-04-23 16:23:00,
2013-04-23 12:34:00,61.0,32.0,-100.00,East,93,7.0,14.0,33,0.00,,,-99.99,,2013-04-23 16:34:00,
2013-04-23 12:43:00,62.0,32.0,-100.00,ESE,103,5.0,14.0,32,0.00,,,-99.99,,2013-04-23 16:43:00,
2013-04-23 12:52:00,63.0,32.0,-100.00,ESE,104,7.0,14.0,32,0.00,,,-99.99,,2013-04-23 16:52:00,
2013-04-23 13:02:00,65.0,34.0,-100.00,ESE,105,7.0,14.0,32,0.00,,,-99.99,,2013-04-23 17:02:00,
2013-04-23 13:12:00,65.0,32.0,-100.00,ESE,120,7.0,14.0,31,0.00,,,-99.99,,2013-04-23 17:12:00,
2013-04-23 13:22:00,66.0,34.0,-100.00,ESE,112,6.0,14.0,31,0.00,,,-99.99,,2013-04-23 17:22:00,
2013-04-23 13:33:00,66.0,34.0,-100.00,ENE,63,7.0,14.0,32,0.00,,,-99.99,,2013-04-23 17:33:00,
2013-04-23 13:42:00,65.0,32.0,-100.00,East,94,6.0,14.0,28,0.00,,,-99.99,,2013-04-23 17:42:00,
2013-04-23 13:53:00,67.0,32.0,-100.00,ESE,108,7.0,14.0,28,0.00,,,-99.99,,2013-04-23 17:53:00,
2013-04-23 14:02:00,67.0,32.0,-100.00,East,96,7.0,14.0,28,0.00,,,-99.99,,2013-04-23 18:02:00,
2013-04-23 14:12:00,67.0,30.0,-100.00,ENE,77,8.0,14.0,25,0.00,,,-99.99,,2013-04-23 18:12:00,
2013-04-23 14:22:00,68.0,32.0,-100.00,ESE,104,9.0,14.0,27,0.00,,,-99.99,,2013-04-23 18:22:00,
2013-04-23 14:32:00,69.0,32.0,-100.00,SE,132,8.0,14.0,27,0.00,,,-99.99,,2013-04-23 18:32:00,
2013-04-23 14:42:00,69.0,32.0,-100.00,SSE,153,9.0,14.0,27,0.00,,,-99.99,,2013-04-23 18:42:00,
2013-04-23 14:52:00,69.0,32.0,-100.00,ESE,104,9.0,14.0,25,0.00,,,-99.99,,2013-04-23 18:52:00,
2013-04-23 15:02:00,69.0,34.0,-100.00,East,86,9.0,14.0,27,0.00,,,-99.99,,2013-04-23 19:02:00,
2013-04-23 15:11:00,71.0,34.0,-100.00,SE,132,7.0,14.0,27,0.00,,,-99.99,,2013-04-23 19:11:00,
2013-04-23 15:22:00,70.0,32.0,-100.00,ESE,108,7.0,14.0,25,0.00,,,-99.99,,2013-04-23 19:22:00,
2013-04-23 15:32:00,70.0,34.0,-100.00,East,83,6.0,14.0,28,0.00,,,-99.99,,2013-04-23 19:32:00,
2013-04-23 15:42:00,70.0,32.0,-100.00,SE,124,9.0,14.0,25,0.00,,,-99.99,,2013-04-23 19:42:00,
2013-04-23 15:52:00,71.0,36.0,-100.00,SE,127,7.0,14.0,27,0.00,,,-99.99,,2013-04-23 19:52:00,
2013-04-23 16:02:00,70.0,32.0,-100.00,SE,142,9.0,14.0,24,0.00,,,-99.99,,2013-04-23 20:02:00,
2013-04-23 16:11:00,71.0,34.0,-100.00,SE,127,6.0,14.0,27,0.00,,,-99.99,,2013-04-23 20:11:00,
2013-04-23 16:22:00,71.0,32.0,-100.00,ESE,103,9.0,14.0,24,0.00,,,-99.99,,2013-04-23 20:22:00,
2013-04-23 16:32:00,71.0,32.0,-100.00,East,96,7.0,14.0,25,0.00,,,-99.99,,2013-04-23 20:32:00,
2013-04-23 16:42:00,70.0,32.0,-100.00,East,100,8.0,14.0,24,0.00,,,-99.99,,2013-04-23 20:42:00,
2013-04-23 16:52:00,71.0,32.0,-100.00,East,96,9.0,14.0,24,0.00,,,-99.99,,2013-04-23 20:52:00,
2013-04-23 17:02:00,72.0,34.0,-100.00,SE,124,8.0,14.0,25,0.00,,,-99.99,,2013-04-23 21:02:00,
2013-04-23 17:12:00,72.0,34.0,-100.00,SE,145,6.0,14.0,25,0.00,,,-99.99,,2013-04-23 21:12:00,
2013-04-23 17:22:00,72.0,32.0,-100.00,East,93,7.0,14.0,24,0.00,,,-99.99,,2013-04-23 21:22:00,
2013-04-23 17:33:00,71.0,32.0,-100.00,East,97,8.0,14.0,24,0.00,,,-99.99,,2013-04-23 21:33:00,
2013-04-23 17:43:00,71.0,32.0,-100.00,ESE,107,9.0,14.0,24,0.00,,,-99.99,,2013-04-23 21:43:00,
2013-04-23 17:52:00,71.0,32.0,-100.00,SE,134,8.0,14.0,24,0.00,,,-99.99,,2013-04-23 21:52:00,
2013-04-23 18:03:00,72.0,34.0,-100.00,SE,139,7.0,14.0,25,0.00,,,-99.99,,2013-04-23 22:03:00,
2013-04-23 18:12:00,72.0,32.0,-100.00,SSE,163,9.0,14.0,24,0.00,,,-99.99,,2013-04-23 22:12:00,
2013-04-23 18:23:00,71.0,32.0,-100.00,South,176,8.0,14.0,24,0.00,,,-99.99,,2013-04-23 22:23:00,
2013-04-23 18:33:00,72.0,32.0,-100.00,ESE,112,7.0,14.0,24,0.00,,,-99.99,,2013-04-23 22:33:00,
2013-04-23 18:42:00,71.0,32.0,-100.00,ESE,103,7.0,14.0,25,0.00,,,-99.99,,2013-04-23 22:42:00,
2013-04-23 18:52:00,71.0,32.0,-100.00,SE,125,9.0,14.0,24,0.00,,,-99.99,,2013-04-23 22:52:00,
2013-04-23 19:03:00,70.0,32.0,-100.00,SE,141,7.0,14.0,25,0.00,,,-99.99,,2013-04-23 23:03:00,
2013-04-23 19:12:00,71.0,32.0,-100.00,SSE,151,4.0,14.0,25,0.00,,,-99.99,,2013-04-23 23:12:00,
2013-04-23 19:22:00,71.0,32.0,-100.00,SE,129,7.0,14.0,25,0.00,,,-99.99,,2013-04-23 23:22:00,
2013-04-23 19:32:00,71.0,34.0,-100.00,ESE,105,6.0,14.0,27,0.00,,,-99.99,,2013-04-23 23:32:00,
2013-04-23 19:42:00,70.0,34.0,-100.00,SE,129,6.0,14.0,27,0.00,,,-99.99,,2013-04-23 23:42:00,
2013-04-23 19:52:00,70.0,34.0,-100.00,East,86,5.0,14.0,27,0.00,,,-99.99,,2013-04-23 23:52:00,
2013-04-23 20:02:00,70.0,34.0,-100.00,SE,131,6.0,14.0,28,0.00,,,-99.99,,2013-04-24 00:02:00,
2013-04-23 20:11:00,69.0,34.0,-100.00,ESE,108,6.0,14.0,28,0.00,,,-99.99,,2013-04-24 00:11:00,
2013-04-23 20:22:00,69.0,34.0,-100.00,East,90,4.0,4.0,29,0.00,,,-99.99,,2013-04-24 00:22:00,
2013-04-23 20:32:00,67.0,32.0,-100.00,ESE,118,3.0,4.0,29,0.00,,,-99.99,,2013-04-24 00:32:00,
2013-04-23 20:42:00,68.0,32.0,-100.00,ESE,107,3.0,4.0,28,0.00,,,-99.99,,2013-04-24 00:42:00,
2013-04-23 20:52:00,68.0,34.0,-100.00,East,93,2.0,4.0,29,0.00,,,-99.99,,2013-04-24 00:52:00,
2013-04-23 21:02:00,67.0,34.0,-100.00,ESE,118,3.0,4.0,29,0.00,,,-99.99,,2013-04-24 01:02:00,
2013-04-23 21:11:00,67.0,32.0,-100.00,ESE,108,4.0,4.0,29,0.00,,,-99.99,,2013-04-24 01:11:00,
2013-04-23 21:21:00,67.0,32.0,-100.00,East,98,4.0,4.0,29,0.00,,,-99.99,,2013-04-24 01:21:00,
2013-04-23 21:32:00,66.0,34.0,-100.00,East,87,3.0,4.0,31,0.00,,,-99.99,,2013-04-24 01:32:00,
2013-04-23 21:42:00,66.0,34.0,-100.00,ENE,77,3.0,4.0,31,0.00,,,-99.99,,2013-04-24 01:42:00,
2013-04-23 21:52:00,66.0,34.0,-100.00,East,100,4.0,4.0,31,0.00,,,-99.99,,2013-04-24 01:52:00,
2013-04-23 22:02:00,66.0,34.0,-100.00,East,100,4.0,4.0,31,0.00,,,-99.99,,2013-04-24 02:02:00,
2013-04-23 22:20:00,67.0,36.0,-100.00,East,93,4.0,4.0,33,0.00,,,-99.99,,2013-04-24 02:20:00,
2013-04-23 22:30:00,67.0,36.0,-100.00,East,90,5.0,6.0,33,0.00,,,-99.99,,2013-04-24 02:30:00,
2013-04-23 22:49:00,67.0,36.0,-100.00,ESE,107,4.0,6.0,33,0.00,,,-99.99,,2013-04-24 02:49:00,
2013-04-23 22:56:00,67.0,36.0,-100.00,East,84,4.0,6.0,33,0.00,,,-99.99,,2013-04-24 02:56:00,
2013-04-23 23:11:00,67.0,36.0,-100.00,ESE,120,5.0,6.0,33,0.00,,,-99.99,,2013-04-24 03:11:00,
2013-04-23 23:18:00,67.0,37.0,-100.00,East,79,6.0,6.0,34,0.00,,,-99.99,,2013-04-24 03:18:00,
2013-04-23 23:42:00,67.0,36.0,-100.00,East,79,5.0,6.0,34,0.00,,,-99.99,,2013-04-24 03:42:00,
2013-04-23 23:52:00,67.0,36.0,-100.00,East,79,5.0,6.0,34,0.00,,,-99.99,,2013-04-24 03:52:00,
2013-04-23 23:57:00,65.0,34.0,-100.00,ESE,114,6.0,8.0,32,0.00,,,-99.99,,2013-04-24 03:57:00,